Weather Roundup
Issued by NWS

Home | Current Version | Previous Version | Graphics & Text | Print | Product List | Glossary Off
Versions: 1 2 3 4 5 6 7 8 9 10 11 12 13 14 15 16 17 18 19 20 21 22 23 24 25 26 27 28 29 30 31 32 33 34 35 36 37 38 39 40 41 42 43 44 45 46 47 48 49 50

000
NZUS93 KARX 250259
HRRWXR

CURRENT HOURLY OBSERVATIONS ACROSS
MUCH OF THE UPPER MISSISSIPPI VALLEY
NATIONAL WEATHER SERVICE LA CROSSE WI
1000 PM CDT FRI OCT 24 2014


...SOUTHEAST MINNESOTA...


CITY           SKY/WX    TMP DP  RH WIND       PRES   REMARKS
ROCHESTER      FOG       54  54 100 S6        29.91R VSB 1/4
ROCHESTER/MAYO CLOUDY    55  55  98 CALM      29.90S VSB 1/4
WINONA         CLOUDY    55  55 100 CALM      29.89S
AUSTIN         FOG       48  48 100 CALM      29.91S VSB 1/4
ALBERT LEA     MOCLDY    50  50 100 CALM      29.91S FOG
DODGE CENTER   MOCLDY    50  50 100 SW7       29.90R FOG
PRESTON        FOG       56  56  97 SW5       29.92R VSB 1/4
OWATONNA       MOCLDY    54  48  82 S5        29.90R
FARIBAULT      MOCLDY    48  46  93 S3        29.89S
$$

...ELSEWHERE IN MINNESOTA...


CITY           SKY/WX    TMP DP  RH WIND       PRES   REMARKS
MINNEAPOLIS    PTCLDY    59  51  75 SW3       29.86R
INTNL FALLS    CLEAR     57  35  43 W13       29.72R
DULUTH         MOCLDY    57  45  64 W13       29.74F
RED WING       FOG       48  46  93 CALM      29.86S VSB 1/2
REDWOOD FALLS  CLEAR     62  40  44 W9        29.89S
MANKATO        MOCLDY    57  45  62 SW6       29.89S
WORTHINGTON    CLEAR     54  39  58 W8        29.97R
FAIRMONT       PTCLDY    55   7  14 W10       29.93R
$$

...SOUTHWEST WISCONSIN...


CITY           SKY/WX    TMP DP  RH WIND       PRES   REMARKS
LA CROSSE      MOCLDY    58  55  90 S7        29.90R
PRAIRIE DU CHI CLOUDY    59  56  89 W3        29.93R
BOSCOBEL       CLOUDY    59  56  89 SW6       29.93R
LONE ROCK      NOT AVBL
PLATTEVILLE    CLOUDY    58  56  92 SW6       29.94R
FORT MC COY    MOCLDY    56  55  94 CALM      29.90F
VIROQUA        CLOUDY    55  55 100 SW5       29.92S
WIS DELLS      CLOUDY    57  52  82 W5        29.91R HAZE
$$

...ELSEWHERE IN WISCONSIN...


CITY           SKY/WX    TMP DP  RH WIND       PRES   REMARKS
MILWAUKEE      CLOUDY    54  50  86 S6        29.92F FOG
MADISON        CLOUDY    55  50  83 CALM      29.91S
GREEN BAY      CLOUDY    53  50  89 S5        29.86F
EAU CLAIRE     MOCLDY    53  52  96 S6        29.86S FOG
BLACK RVR FLS  FAIR      56  56 100 CALM      29.88S FOG
MEDFORD        CLOUDY    55  53  95 W14       29.86S FOG
WAUSAU         CLOUDY    55  51  86 SW5       29.85S
WIS RAPIDS     CLOUDY    57  54  89 SW6       29.89F
MARSHFIELD     CLOUDY    58  55  90 W12       29.87S
RICE LAKE      CLOUDY    56  54  92 S7        29.86S FOG
$$

...NORTHEAST IOWA...


CITY           SKY/WX    TMP DP  RH WIND       PRES   REMARKS
DECORAH        CLOUDY    59  57  94 S5        29.91F FOG
MASON CITY     PTCLDY    50  49  96 SW5       29.94R
CHARLES CITY   FOG       57  57 100 SW6       29.94R VSB<1/4
OELWEIN        CLOUDY    59  59 100 SW3       29.95R FOG
$$

...ELSEWHERE IN IOWA...


CITY           SKY/WX    TMP DP  RH WIND       PRES   REMARKS
DES MOINES     FOG       59  58  96 S6        29.95S VSB 3/4
IOWA CITY      FOG       53  53 100 CALM      29.96S VSB 1/4
FORT DODGE     CLEAR     52  48  87 CALM      29.96R
$$

...NORTHERN ILLINOIS...


CITY           SKY/WX    TMP DP  RH WIND       PRES   REMARKS
CHICAGO-OHARE  CLOUDY    61  46  57 W8        29.94S
CHICAGO-MIDWAY CLOUDY    62  47  57 SW8       29.94S
MOLINE         CLOUDY    60  56  86 W5        29.95S FOG
ROCKFORD       CLOUDY    60  46  59 SW10      29.95F
PEORIA         CLOUDY    63  51  65 S9        29.98R
$$

NOTE: "FAIR" INDICATES FEW OR NO CLOUDS BELOW 12,000 FEET WITH NO
SIGNIFICANT WEATHER AND/OR OBSTRUCTIONS TO VISIBILITY. WIND
SPEEDS ARE IN MILES-PER-HOUR.



USA.gov is the U.S. government's official web portal to all federal, state and local government web resources and services.